EW9058 Laiya PH current weather conditions

sailwx.info

Wind from 189 at 3 knots gusting 11

Air temperature 26.1° C
Dewpoint 22.8° C

Last reported at 2019-Jan-24 10:00 UTC.
Time now 2019-Jan-24 11:04 UTC

Location: N 13°40' E 121°24'.
View on Google Maps.

See reports from other nearby stations

  
Tides and Currents Weather Stations Pressure Air Temp Water Temp Dewpoint Dewpoint Depression Visibility Wind Speed Wind Dir Waves Ship Positions
date/time (UTC)wind fromknots sea level pressurealtimeterstation pressurevisibilityair tempwater tempwave heightnotes
2019-Jan-24 10:00 189 3 gusting 11 26.1
2019-Jan-24 09:30 189 4 gusting 12 26.1
2019-Jan-24 09:00 190 5 gusting 12 26.1
2019-Jan-24 08:30 190 5 gusting 15 26.1
2019-Jan-24 08:00 190 6 gusting 18 26.7
2019-Jan-24 07:30 189 7 gusting 18 26.7
2019-Jan-24 07:00 189 7 gusting 20 26.7
2019-Jan-24 06:30 190 8 gusting 20 27.2
2019-Jan-24 06:00 189 7 gusting 19 27.8
2019-Jan-24 05:30 189 7 gusting 17 27.8
2019-Jan-24 05:00 189 7 gusting 16 27.2
2019-Jan-24 04:30 190 6 gusting 16 26.7
2019-Jan-24 04:00 189 6 gusting 17 26.7
2019-Jan-24 03:30 189 7 gusting 17 26.1
2019-Jan-24 03:00 190 6 gusting 16 26.7
2019-Jan-24 02:30 189 6 gusting 18 26.1
2019-Jan-24 02:00 189 7 gusting 18 26.1
2019-Jan-24 01:30 190 7 gusting 17 26.1
2019-Jan-24 01:00 189 6 gusting 16 25.0
2019-Jan-24 00:30 189 6 gusting 14 24.4
2019-Jan-24 00:00 190 5 gusting 16 24.4
2019-Jan-23 23:30 189 6 gusting 19 23.9
2019-Jan-23 23:00 189 6 gusting 19 23.9
2019-Jan-23 22:30 189 4 gusting 13 23.9
2019-Jan-23 22:00 190 5 gusting 18 23.9
2019-Jan-23 21:30 189 6 gusting 18 23.9
2019-Jan-23 21:00 190 6 gusting 13 23.9
2019-Jan-23 20:30 190 5 gusting 13 23.9
2019-Jan-23 20:00 189 5 gusting 13 23.9
2019-Jan-23 19:30 190 5 gusting 18 23.3
2019-Jan-23 19:00 189 6 gusting 18 23.9
2019-Jan-23 18:30 189 6 gusting 21 23.9
2019-Jan-23 18:00 189 8 gusting 21 23.9
2019-Jan-23 17:30 190 6 gusting 16 24.4
2019-Jan-23 17:00 189 7 gusting 16 24.4
2019-Jan-23 16:30 189 6 gusting 16 24.4
2019-Jan-23 16:00 189 6 gusting 17 24.4
2019-Jan-23 15:30 189 6 gusting 17 24.4
2019-Jan-23 15:00 189 6 gusting 16 24.4
2019-Jan-23 14:30 189 6 gusting 16 24.4
2019-Jan-23 14:00 190 6 gusting 17 24.4
2019-Jan-23 13:31 189 6 gusting 19 24.4
2019-Jan-23 13:00 189 6 gusting 20 24.4
2019-Jan-23 12:30 189 7 gusting 20 24.4
2019-Jan-23 12:00 189 7 gusting 18 25.0
2019-Jan-23 11:30 189 7 gusting 20 25.0
2019-Jan-23 11:00 189 7 gusting 20 25.0
2019-Jan-23 10:30 189 6 gusting 15 25.0
2019-Jan-23 10:00 189 7 gusting 19 25.0
2019-Jan-23 09:30 189 7 gusting 19 25.6
2019-Jan-23 09:00 189 9 gusting 19 25.6
2019-Jan-23 08:30 190 8 gusting 23 25.6
2019-Jan-23 08:00 189 8 gusting 23 26.1
2019-Jan-23 07:30 189 7 gusting 20 26.1
2019-Jan-23 07:00 189 9 gusting 20 26.1
2019-Jan-23 06:30 189 9 gusting 21 26.7
2019-Jan-23 06:00 189 8 gusting 21 27.2
2019-Jan-23 05:30 189 7 gusting 21 27.2
2019-Jan-23 05:00 189 10 gusting 21 26.7
2019-Jan-23 04:30 189 8 gusting 19 26.7
2019-Jan-23 04:00 189 7 gusting 19 27.2
2019-Jan-23 03:00 189 7 gusting 20 26.7
2019-Jan-23 02:30 189 7 gusting 19 26.7
2019-Jan-23 02:00 190 8 gusting 19 26.7
2019-Jan-23 01:30 189 7 gusting 19 26.1
2019-Jan-23 01:00 190 5 gusting 15 25.6
2019-Jan-23 00:30 190 3 gusting 10 25.6
2019-Jan-23 00:00 189 2 gusting 11 25.0
2019-Jan-22 23:30 189 4 gusting 11 24.4
2019-Jan-22 23:00 189 4 gusting 10 24.4
2019-Jan-22 22:30 189 3 gusting 9 24.4
2019-Jan-22 22:00 190 1 gusting 6 23.9
2019-Jan-22 21:30 189 1 gusting 6 23.9
2019-Jan-22 21:00 190 0 gusting 9 23.9
2019-Jan-22 20:30 189 2 gusting 13 24.4
2019-Jan-22 20:00 190 1 gusting 13 23.9
2019-Jan-22 19:30 189 0 gusting 12 23.9
2019-Jan-22 19:00 189 2 gusting 12 24.4
2019-Jan-22 18:30 190 23.9
2019-Jan-22 18:00 189 1 gusting 6 23.3
2019-Jan-22 17:30 190 1 gusting 6 23.9
2019-Jan-22 17:00 190 0 gusting 6 24.4
2019-Jan-22 16:30 190 0 gusting 9 24.4
2019-Jan-22 16:00 189 1 gusting 9 23.9
2019-Jan-22 15:30 189 1 gusting 8 23.9
2019-Jan-22 15:00 189 1 gusting 7 23.9
2019-Jan-22 14:30 190 0 gusting 8 23.9
2019-Jan-22 14:00 189 1 gusting 10 23.9
2019-Jan-22 13:30 189 2 gusting 19 23.9
2019-Jan-22 13:00 190 6 gusting 19 23.9
2019-Jan-22 12:30 189 2 gusting 11 24.4
2019-Jan-22 12:00 189 3 gusting 11 25.0
2019-Jan-22 11:30 189 3 gusting 10 25.6
2019-Jan-22 11:00 189 2 gusting 8 25.0